Regional Weather Roundup
Issued by NWS

Home | Current Version | Previous Version | Text Only | Print | Product List | Glossary On
Versions: 1 2 3 4 5 6 7 8 9 10 11 12 13 14 15 16 17 18 19 20 21 22 23 24 25 26 27 28 29 30 31 32 33 34 35 36 37 38 39 40 41 42 43 44 45 46 47 48 49 50
000
ASUS43 KMKX 191500
RWRWI

WISCONSIN REGIONAL WEATHER ROUNDUP
NATIONAL WEATHER SERVICE MILWAUKEE/SULLIVAN WI
900 AM CST FRI DEC 19 2014

NOTE: "FAIR" INDICATES FEW OR NO CLOUDS BELOW 12,000 FEET WITH NO
SIGNIFICANT WEATHER AND/OR OBSTRUCTIONS TO VISIBILITY.

WIZ001-002-006>008-014>016-023>028-191600-
NORTHWEST WISCONSIN

CITY           SKY/WX    TMP DP  RH WIND       PRES   REMARKS
SUPERIOR ARPT  CLOUDY    23  21  91 CALM      30.27R
ASHLAND        CLOUDY    23  20  88 S3        30.29S
HAYWARD        CLOUDY    22  19  89 S5        30.25S FOG     WCI  16
SIREN          CLOUDY    23  19  86 SE5       30.25S WCI  17
CUMBERLAND     CLOUDY    23  19  86 S7        30.24S WCI  15
RICE LAKE      CLOUDY    24  20  87 S6        30.28R WCI  16
CHETEK         CLOUDY    23  20  89 S3        30.27R
LADYSMITH      CLOUDY    23  21  93 S5        30.28R WCI  17
EAU CLAIRE     NOT AVBL
MENOMONIE      CLOUDY    24  19  81 SE5       30.28S WCI  18
NEW RICHMOND   CLOUDY    23  19  87 SE7       30.26S WCI  14
OSCEOLA        CLOUDY    23  19  85 SE7       30.28S WCI  15
$$

WIZ003>005-009-010-017-018-191600-
NORTH CENTRAL WISCONSIN

CITY           SKY/WX    TMP DP  RH WIND       PRES   REMARKS
MANITOWISH WTR CLOUDY    15  14  96 CALM      30.24R
ARBOR VITAE    CLOUDY    17  14  89 CALM      30.25R
WOODRUFF       CLOUDY    17  14  89 CALM      30.25R
RHINELANDER    FOG        6   5  95 E3        30.25S VSB<1/4
EAGLE RIVER    SNOW       4  -1  81 CALM      30.26R VSB 1/4
LAND O LAKES   CLOUDY    -1  -5  84 CALM      30.26R FOG
PHILLIPS       CLOUDY    21  19  91 S5        30.24R WCI  14
TOMAHAWK       CLOUDY    14  12  92 CALM      30.26S
MEDFORD        CLOUDY    22  19  88 S5        30.24S WCI  16
MERRILL        CLOUDY    14  12  91 CALM      30.27S
$$

WIZ029-030-035-036-043>047-191600-
CENTRAL WISCONSIN

CITY           SKY/WX    TMP DP  RH WIND       PRES   REMARKS
WAUSAU         CLOUDY    18  14  84 CALM      30.26S
MOSINEE        NOT AVBL
MARSHFIELD     CLOUDY    23  20  88 S3        30.26S
STEVENS POINT  CLOUDY    16  14  91 CALM      30.29S
WAUPACA        MOSUNNY   19  16  87 CALM      30.31S
WAUTOMA        NOT AVBL
WISC RAPIDS    CLOUDY    22  18  85 E3        30.30S
CAMP DOUGLAS   NOT AVBL
$$

WIZ011>013-019>022-031-037>040-048>050-191600-
NORTHEAST WISCONSIN

CITY           SKY/WX    TMP DP  RH WIND       PRES   REMARKS
ANTIGO         MOSUNNY    9   7  92 CALM      30.26S
SHAWANO        SUNNY     18  16  89 CALM      30.32R
OCONTO         SUNNY     18  17  98 CALM      30.32R
STURGEON BAY   FAIR      25  21  86 NW5       30.32R WCI  19
GREEN BAY      SUNNY     21  18  88 CALM      30.32R
MANITOWOC      NOT AVBL
APPLETON       MOSUNNY   19  19 100 VRB3      30.31R
CLINTONVILLE   SUNNY     19  16  86 CALM      30.31S
OSHKOSH        SUNNY     20  17  88 W3        30.31R
$$

WIZ032>034-041-042-053>061-191600-
SOUTHWEST WISCONSIN

CITY           SKY/WX    TMP DP  RH WIND       PRES   REMARKS
LA CROSSE      CLOUDY    26  18  71 SE5       30.31R WCI  20
SPARTA         CLOUDY    24  19  78 CALM      30.31R
VIROQUA        CLOUDY    23  19  87 CALM      30.27R
BOSCOBEL       PTSUNNY   26  19  74 CALM      30.32R
PRAIRIE DU CHI CLOUDY    26  19  74 E3        30.31R
PLATTEVILLE    MOSUNNY   24  20  83 CALM      30.30S
$$

WIZ056-057-062-063-064-067-068-191600-
SOUTH CENTRAL WISCONSIN

CITY           SKY/WX    TMP DP  RH WIND       PRES   REMARKS
REEDSBURG      CLOUDY    23  20  87 CALM      30.30R
BARABOO/DELLS  CLOUDY    24  20  87 CALM      30.30R
LONE ROCK      NOT AVBL
MINERAL POINT  CLOUDY    27  21  80 N5        30.28R WCI  21
MADISON        CLOUDY    25  20  81 VRB3      30.30R
MIDDLETON      CLOUDY    26  21  80 NE3       30.31R
WATERTOWN      CLOUDY    24  21  88 CALM      30.30S
MONROE         CLOUDY    27  23  86 N3        30.28R
JANESVILLE     CLOUDY    28  21  74 NE6       30.30R WCI  22
$$

WIZ051-052-058>065-066-070>072-191600-
SOUTHEAST WISCONSIN

CITY           SKY/WX    TMP DP  RH WIND       PRES   REMARKS
MILWAUKEE      CLOUDY    27  18  69 NW9       30.31R WCI  18
WAUKESHA       CLOUDY    23  19  86 NW3       30.31R
MILWAUKEE/TIMM SUNNY     25  18  74 CALM      30.32R
RACINE         CLOUDY    28  19  69 NW7       30.32R WCI  21
BURLINGTON     CLOUDY    25  19  79 N3        30.31R
KENOSHA        CLOUDY    27  20  75 NW7       30.30R WCI  19
FOND DU LAC    SUNNY     21  17  84 W3        30.31R
SHEBOYGAN      CLOUDY    24  19  81 NW5       30.31R WCI  18
WEST BEND      CLOUDY    23  19  86 W3        30.29S
JUNEAU         CLOUDY    23  20  87 CALM      30.31S
$$

LSZ147-162-191600-
LAKE SUPERIOR

STATION/POSITION TIME  TEMP    WIND        PRES    WAVE
                       AIR SEA DIR/SP/G            HT/PER
                 (UTC) (F)     (DEG/KT/KT) (MB)    (FT/S)
DEVILS ISLAND    1400   24     190/  4/  6 1026.5R
PORT WING        1440   23     160/  2/  3 1025.4R
SAXON HARBOR     1400   21        CALM     1025.4S
$$

LMZ867-665-643>646-191600-
LAKE MICHIGAN

STATION/POSITION TIME  TEMP    WIND        PRES    WAVE
                       AIR SEA DIR/SP/G            HT/PER
                 (UTC) (F)     (DEG/KT/KT) (MB)    (FT/S)
CHAMBERS ISLAND  1400   27     310/  2/  4 1026.1S
NORTHPORT PIER   1406   26     320/  3/  4 1026.1R
ALGOMA LAKESHORE 1414          330/  6/  7   N/A
KEWAUNEE LAKESHO 1400   20     300/  2/  4 1025.1R
SHEBOYGAN LAKESH 1400   26 33  290/  8/ 10 1027.0R
PORT WASHINGTON  1400   25     290/  7/  9 1026.8R
MILWAUKEE LAKESH 1400   25     300/  6/  7   N/A
KENOSHA   LAKESH 1400   27     340/  8/ 10 1026.1R
$$

TC  - TEMPERATURE IN CELSIUS
VSB - VISIBILITY IN STATUTE MILES
WCI - WIND CHILL INDEX
HX  - HEAT INDEX




USA.gov is the U.S. government's official web portal to all federal, state and local government web resources and services.